#timestamp,LO_Frequency,Hit,StdDev 
1577512815.7,286046999.6,N
1577512835.6,286046992.4,N
1577512855.4,286046997.0,N
1577512875.3,286047003.3,N
1577512895.1,286046999.0,N
1577512896.0,286046999.0,N
1577512915.8,286047001.5,N
1577512935.7,286047000.6,N
1577512955.5,286047000.8,N
1577512975.3,286047000.9,N
1577512995.2,286046996.1,N
1577513015.0,286046996.2,N
1577513015.9,286046996.2,N
1577513035.8,286046992.3,N
1577513055.6,286046992.5,N
1577513075.4,286046991.9,N
1577513095.3,286046993.6,N
1577513115.1,286046987.9,Y
1577513135.9,286046989.0,P
1577513155.7,286046983.7,P
1577513175.5,286046981.9,P
1577513195.4,286046986.0,N
1577513215.2,286046984.4,N
1577513235.0,286046988.2,N
1577513235.9,286046988.2,N
1577513255.8,286046994.5,N
1577513275.6,286046991.5,N
1577513295.5,286046989.3,N
1577513315.3,286046996.2,N
1577513335.1,286046993.6,N
1577513355.9,286046993.3,N
1577513375.7,286046999.5,N
1577513395.6,286047000.3,N
1577513415.4,286046998.5,N
1577513435.2,286047001.5,N
1577513455.1,286046995.3,N
1577513456.0,286046995.3,N
1577513475.8,286046992.2,N
1577513495.6,286046990.2,N
1577513515.5,286046993.1,N
1577513535.3,286046991.3,N
1577513555.2,286046992.7,N
1577513575.9,286046991.8,N
1577513595.7,286046992.5,N
1577513615.6,286046989.1,N
1577513635.4,286046983.9,Y
1577513655.2,286046990.8,P
1577513675.1,286046990.1,P
1577513676.0,286046990.1,P
1577513695.8,286046992.4,Y
1577513715.7,286047000.9,P
1577513735.5,286047003.7,N
1577513755.3,286047001.7,N
1577513775.2,286047008.8,N
1577513795.0,286047015.4,N
1577513795.9,286047015.4,N
1577513815.8,286047006.7,N
1577513835.6,286047000.0,N
1577513855.4,286047005.1,N
1577513875.3,286047007.3,N
1577513895.1,286047006.1,N
1577513915.8,286047007.4,N
1577513935.7,286047008.6,N
1577513955.5,286047015.8,N
1577513975.4,286047026.8,Y
1577513995.2,286047020.2,P
1577514015.0,286047024.9,P
1577514015.9,286047024.9,P
1577514035.8,286047023.4,Y
1577514055.6,286047007.9,P
1577514075.5,286047003.6,N
1577514095.3,286046995.7,N
1577514115.2,286046988.4,N
1577514135.9,286046985.0,N
1577514155.7,286046988.0,N
1577514175.6,286046992.3,N
1577514195.4,286046994.8,N
1577514215.2,286046989.0,N
1577514235.1,286046989.9,N
1577514236.0,286046989.9,N
1577514255.8,286046988.6,N
1577514275.7,286046989.1,N
1577514295.5,286046990.2,N
1577514315.3,286046989.5,N
1577514335.2,286046988.1,N
1577514355.0,286046988.1,N
1577514355.9,286046988.1,N
1577514375.7,286046986.9,N
1577514395.6,286046985.7,N
1577514415.4,286046985.4,N
1577514435.3,286046996.0,N
1577514455.1,286047001.5,N
1577514456.0,286047001.5,N
1577514475.8,286047005.0,N
1577514495.7,286047020.6,N
1577514515.5,286047018.2,N
1577514535.3,286047020.0,N
1577514555.2,286047009.6,N
1577514575.0,286047010.4,N
1577514575.9,286047010.4,N
1577514595.8,286047021.3,N
1577514615.6,286047013.9,N
1577514635.4,286047020.5,N
1577514655.3,286047029.8,N
1577514675.1,286047025.8,N
1577514695.9,286047016.5,N
1577514715.7,286047013.0,N
1577514735.5,286047004.6,N
1577514755.4,286046997.0,N
1577514775.2,286046994.6,N
1577514795.0,286046993.7,N
1577514795.9,286046993.7,N
1577514815.8,286046992.3,N
1577514835.6,286046990.0,N
1577514855.5,286047000.9,N
1577514875.3,286047006.9,N
1577514895.1,286047004.5,N
1577514915.9,286047008.2,N
1577514935.7,286047023.2,N
1577514955.5,286047018.4,N
1577514975.4,286047003.1,N
1577514995.2,286047001.4,N
1577515015.1,286047006.0,N
1577515016.0,286047006.0,N
1577515035.8,286046998.3,N
1577515055.6,286046999.8,N
1577515075.5,286046993.3,N
1577515095.3,286046993.9,N
1577515115.1,286046996.0,N
1577515135.9,286047005.6,N
1577515155.7,286047002.1,N
1577515175.6,286047004.2,N
1577515195.4,286046998.4,N
1577515215.2,286046996.8,N
1577515235.1,286046994.0,N
1577515236.0,286046994.0,N
1577515255.8,286046993.0,N
1577515275.7,286046987.0,N
1577515295.5,286046981.1,N
1577515315.3,286046980.8,N
1577515335.2,286046987.9,N
1577515355.0,286046994.0,N
1577515355.9,286046994.0,N
1577515375.7,286046999.9,N
1577515395.6,286047010.3,N
1577515415.4,286047008.8,N
1577515435.3,286047007.6,N
1577515455.1,286047004.7,N
1577515475.8,286047005.7,N
1577515495.7,286047008.3,N
1577515515.5,286047007.9,N
1577515535.4,286047004.1,N
1577515555.2,286046995.6,N
1577515575.0,286047000.1,N
1577515575.9,286047000.1,N
1577515595.8,286046994.8,N
1577515615.6,286046991.6,N
1577515635.5,286046994.7,N
1577515655.3,286046993.6,N
1577515675.1,286046994.8,N
1577515695.9,286046992.0,N
1577515715.7,286046989.5,N
1577515735.5,286046986.1,N
1577515755.4,286046986.3,N
1577515775.2,286046983.7,N
1577515795.1,286046988.0,N
1577515796.0,286046988.0,N
1577515815.8,286046995.9,N
1577515835.6,286046997.9,N
1577515855.5,286046999.0,N
1577515875.3,286046990.3,N
1577515895.2,286046999.8,N
1577515915.9,286046997.8,N
1577515935.7,286046990.4,N
1577515955.6,286046999.9,N
1577515975.4,286046999.5,N
1577515995.2,286047000.0,N
1577516015.1,286047000.6,N
1577516016.0,286047000.6,N
1577516035.8,286047002.8,N
1577516055.7,286047005.8,N
1577516075.5,286047009.3,N
1577516095.3,286047018.4,Y
1577516115.2,286047018.1,P
1577516135.9,286047009.3,N
1577516155.7,286047000.1,N
1577516175.6,286046996.6,N
1577516195.4,286046995.4,N
1577516215.3,286046990.1,N
1577516235.1,286046987.0,N
1577516236.0,286046987.0,N
1577516255.8,286046984.6,N
1577516275.7,286046986.1,N
1577516295.5,286046991.6,N
1577516315.3,286046989.6,N
1577516335.2,286046985.3,N
1577516355.0,286046988.7,N
1577516355.9,286046988.7,N
1577516375.8,286046997.9,N
1577516395.6,286047001.0,N
